Theta_e
310 309 308 307 306 306 306 305 305 305 305 304 305 305 304 305 306 307 308 303 307 310 313 318 320 320 319 320 321 328 328 325 322 322 322 322 322 322 322 322 322 321 321
308 307 306 306 305 305 305 305 304 304 304 304 303 303 304 305 305 305 307 307 304 309 315 318 319 320 322 322 319 319 324 322 319 318 318 318 318 318 319 318 318 317 318
307 307 306 305 305 305 304 304 303 303 303 302 302 302 303 303 304 304 305 306 307 306 312 315 315 317 317 318 321 321 321 319 318 316 315 315 315 314 315 315 316 316 316
307 306 305 304 304 304 303 303 302 302 302 302 302 303 303 303 303 303 304 305 307 307 308 310 310 311 313 315 318 319 319 318 317 315 314 313 312 312 313 312 312 312 313
306 305 305 304 303 303 302 302 301 302 301 301 301 302 302 302 302 301 302 303 305 307 309 304 305 307 309 311 313 314 316 315 313 312 312 310 309 310 310 310 311 311 311
305 305 304 303 303 302 302 301 301 300 301 301 297 298 301 303 303 303 302 302 304 305 307 306 306 305 307 309 308 310 312 312 311 310 309 308 308 309 310 309 311 311 311
305 304 303 302 302 301 301 301 300 299 298 299 300 300 300 302 302 303 303 303 303 303 304 305 305 306 305 303 308 310 310 310 310 308 307 307 307 308 308 310 311 311 312
305 303 303 302 301 301 300 299 299 297 298 298 299 299 297 298 300 300 301 301 302 303 302 302 303 303 304 306 307 307 308 308 307 306 305 305 305 307 308 310 311 311 312
303 303 302 302 301 301 299 299 298 298 297 297 297 298 295 294 296 298 298 299 300 301 301 301 301 300 302 303 304 302 300 301 302 302 303 304 304 305 307 309 311 311 311
301 302 302 301 300 300 299 298 298 298 298 295 295 295 296 296 294 293 296 298 298 298 300 301 300 300 300 301 296 295 296 297 298 299 300 301 302 304 305 308 309 310 311
302 301 300 299 299 299 299 298 296 297 297 297 296 293 293 294 294 293 292 295 297 298 299 299 300 300 298 299 299 294 293 294 295 296 298 300 300 302 303 306 307 309 310
300 299 299 299 299 298 298 297 297 296 296 296 296 295 295 294 292 292 291 293 293 296 297 298 298 299 299 299 295 292 293 294 295 296 295 296 299 300 301 303 306 307 308
298 298 298 297 297 297 297 296 295 295 295 294 294 294 294 294 294 294 293 292 291 294 294 296 296 297 297 298 297 293 292 293 294 295 295 295 296 298 299 302 303 304 305
299 299 297 297 296 296 295 295 295 295 294 295 293 293 293 293 293 293 292 291 289 290 291 292 290 290 291 294 295 291 294 290 292 293 294 295 295 297 298 300 301 302 303
299 294 294 294 294 293 293 292 292 288 289 290 287 287 290 291 291 292 292 292 290 287 289 288 290 290 290 292 293 293 294 291 291 292 293 293 294 295 297 298 299 300 300
295 290 289 288 288 288 287 288 287 286 286 288 289 286 287 290 290 291 291 290 290 289 286 289 288 290 290 289 291 290 291 287 289 291 292 292 293 294 295 297 298 298 298
289 289 288 288 287 287 286 286 287 287 287 287 288 287 287 289 289 289 289 289 288 288 285 288 289 288 286 289 289 290 290 290 290 290 290 291 292 292 294 295 296 296 296
288 288 288 288 287 287 286 287 286 286 286 286 286 286 286 287 287 289 288 287 287 287 286 284 287 287 286 289 288 287 287 287 288 288 289 290 291 292 293 294 294 295 295
288 288 288 287 287 286 286 286 286 285 286 286 285 285 285 285 285 287 287 286 286 286 286 284 284 286 287 288 287 287 286 287 287 287 288 290 291 291 292 294 293 294 294
287 287 287 287 286 286 286 285 285 285 285 285 285 285 285 285 285 285 285 285 285 285 285 284 284 284 285 287 286 284 284 286 285 286 286 287 288 289 290 292 293 293 291
286 286 285 285 285 285 285 285 285 285 284 284 284 284 284 285 285 286 285 284 284 283 283 283 282 283 283 283 282 284 281 283 284 285 285 287 287 288 290 290 291 290 290
285 285 285 285 284 285 286 286 285 284 284 283 283 283 284 283 284 285 285 285 285 283 282 282 282 281 282 283 284 282 281 280 281 283 283 284 285 286 288 290 290 290 290
283 283 284 284 284 284 286 286 285 284 284 283 283 283 283 283 284 284 285 286 286 286 286 284 282 282 282 283 282 280 279 280 280 282 282 282 285 284 288 287 287 288 289
282 283 282 283 283 283 286 286 285 283 283 283 283 283 283 283 284 283 283 283 284 285 286 286 285 284 284 284 283 282 282 280 281 281 281 279 284 283 286 287 287 287 288
281 281 281 281 281 281 285 286 285 283 282 282 283 283 283 283 284 284 282 281 282 283 285 286 286 286 286 285 284 281 279 278 278 280 281 280 281 281 283 284 285 283 285
279 280 279 280 280 280 284 285 285 283 281 282 282 283 282 283 284 284 283 282 280 281 282 282 282 283 285 285 285 283 282 279 279 279 281 279 279 280 281 282 281 283 284
Wind_Speed
8 7 7 6 6 5 5 4 4 4 4 4 4 3 3 3 2 1 1 3 5 5 6 4 2 2 2 3 3 5 10 10 11 12 13 12 10 9 8 8 8 7 6
8 8 7 7 6 6 5 5 4 4 3 3 3 3 3 1 1 1 0 2 3 5 6 5 4 5 7 5 2 2 5 8 8 10 13 10 8 7 8 7 6 6 5
11 9 8 7 7 5 6 5 5 4 4 3 3 3 1 0 1 1 2 1 2 2 6 4 5 4 4 3 6 6 7 5 6 7 10 9 8 6 6 6 6 6 5
12 10 8 7 7 6 6 5 5 5 4 3 2 1 1 1 1 3 2 2 1 1 3 5 5 4 3 3 4 4 6 7 6 7 9 9 7 8 8 7 6 5 5
12 10 8 7 9 6 6 6 5 4 3 3 1 1 1 2 2 2 3 3 2 2 1 5 5 7 4 3 2 2 3 4 3 5 9 7 5 7 7 7 7 6 6
13 11 9 9 9 7 6 6 6 4 2 2 1 2 1 0 1 1 3 2 3 3 3 1 1 3 6 6 2 1 1 2 4 6 7 4 5 5 7 7 8 8 7
14 13 9 10 10 9 9 8 6 6 3 3 2 3 2 1 1 1 1 2 3 3 3 2 1 1 1 4 6 4 2 2 4 6 4 4 4 5 7 9 9 8 8
15 13 12 11 12 9 10 9 8 5 3 4 3 2 3 4 3 1 1 2 4 3 3 2 1 1 1 1 4 7 8 7 6 4 3 3 5 6 8 9 9 9 9
14 14 15 12 12 10 9 10 9 9 6 4 5 3 3 3 2 2 3 2 3 3 2 2 2 1 1 2 2 3 8 7 6 5 5 6 5 6 9 10 10 9 9
16 15 15 14 13 9 10 10 9 8 6 6 3 3 1 2 3 3 3 3 3 4 4 3 3 2 2 2 4 5 5 6 6 6 5 6 6 7 9 11 11 9 7
15 15 15 14 13 10 10 11 11 10 7 6 5 3 4 3 3 4 4 4 3 4 4 4 3 3 3 3 3 4 3 4 5 6 6 7 6 8 9 11 13 11 10
11 14 14 13 13 11 12 10 10 10 8 7 6 6 5 3 5 5 6 5 4 3 3 4 5 4 4 3 2 5 2 3 7 8 8 8 7 8 9 12 13 12 11
11 15 16 14 12 13 12 11 11 10 10 8 8 6 5 4 2 3 3 3 4 2 2 4 5 4 5 4 4 6 5 5 6 9 10 10 8 9 10 12 11 11 11
14 16 15 14 14 14 12 12 8 8 9 7 9 5 5 4 4 4 3 4 3 4 3 4 2 2 3 4 2 2 4 2 4 8 10 11 10 10 9 11 10 10 9
11 14 15 14 13 12 12 11 7 7 6 6 6 6 4 4 4 4 4 4 5 3 3 3 2 3 2 3 2 4 4 1 7 8 10 12 11 10 10 11 10 9 8
12 14 14 13 12 11 11 10 7 7 8 6 5 7 5 5 6 5 5 5 5 5 4 1 2 2 2 2 2 4 4 5 8 9 12 13 13 12 11 10 10 8 7
13 15 15 15 14 13 11 10 9 10 10 9 9 9 9 8 6 6 6 5 6 6 7 4 3 2 2 4 4 4 5 5 6 10 13 14 14 12 11 11 10 8 8
12 14 14 14 14 14 13 13 12 10 11 10 9 8 8 6 6 5 6 7 7 7 6 8 5 5 6 5 4 4 5 4 6 9 13 13 13 12 11 11 10 10 8
14 15 15 15 15 14 13 11 11 11 10 9 9 9 8 8 7 7 7 6 6 5 7 7 6 4 5 5 6 5 5 7 6 11 12 12 13 12 11 12 11 11 9
13 12 14 15 14 13 12 11 10 10 9 8 8 8 8 9 8 8 7 8 6 7 7 7 7 6 6 4 4 6 6 5 6 2 6 7 7 10 12 14 12 8 6
12 12 13 12 12 11 8 11 10 9 9 8 7 7 7 8 11 11 7 9 9 8 8 7 7 7 6 5 6 2 3 4 5 2 3 4 4 5 6 11 8 10 11
9 11 11 12 13 8 18 17 12 8 8 8 9 9 8 9 12 16 16 16 11 10 9 7 7 7 8 6 4 4 3 3 2 1 2 3 2 5 5 5 9 13 14
9 9 10 11 10 9 19 18 16 7 8 8 8 8 8 7 10 10 15 17 17 17 16 8 9 8 7 6 4 3 4 3 3 2 4 5 2 5 4 4 12 12 13
9 8 9 9 9 7 17 17 17 9 8 8 9 9 9 9 10 11 10 10 10 9 8 8 10 9 8 5 6 4 3 3 4 4 3 4 1 4 3 4 9 9 11
7 6 7 8 8 7 16 17 14 9 8 9 8 9 10 10 11 15 9 10 9 9 8 13 12 8 12 12 9 5 5 5 5 4 4 3 1 3 3 4 3 6 8
6 6 7 7 7 7 13 15 14 6 8 6 8 9 12 11 13 15 10 9 9 8 7 6 5 9 11 10 16 10 6 7 6 4 4 5 2 2 3 1 2 2 2
Wind_Direction
171 161 156 161 160 161 153 143 131 129 122 119 122 120 104 93 82 59 14 46 360 1 342 316 21 43 70 72 101 113 108 97 89 80 73 60 50 42 46 44 43 35 25
172 169 166 166 166 167 156 153 149 148 147 161 136 95 75 71 40 346 322 135 20 5 351 8 43 27 47 73 116 190 133 123 102 78 68 51 33 30 35 35 22 17 11
176 174 172 172 165 157 149 147 150 157 169 169 143 128 140 96 310 290 290 308 144 96 4 23 60 24 23 52 61 90 103 101 94 81 74 54 31 19 23 30 27 17 12
178 177 176 175 161 159 166 172 170 168 176 178 167 152 211 238 246 259 257 262 216 219 146 41 34 21 22 1 55 87 108 96 93 72 67 57 17 359 357 352 345 335 338
181 178 178 171 169 165 175 177 173 184 175 175 197 235 294 292 284 251 238 238 220 230 201 83 50 34 29 13 356 55 89 104 107 80 55 34 9 343 333 319 311 309 308
185 184 178 168 172 172 177 182 167 149 156 164 211 247 249 249 259 244 220 213 200 198 192 208 207 85 38 22 330 83 120 112 93 78 63 3 347 337 309 306 297 300 295
189 188 180 171 176 183 183 179 155 159 158 176 213 191 183 172 160 106 178 200 183 183 169 176 201 288 97 35 11 37 358 114 94 72 69 18 345 333 313 301 302 295 283
187 187 181 182 185 181 177 175 174 159 157 185 212 239 218 176 175 121 158 189 192 188 174 177 134 29 14 70 63 47 37 34 32 23 338 309 312 314 304 300 295 289 287
187 188 188 184 184 186 180 179 181 181 173 183 226 279 193 228 171 160 169 182 189 200 192 201 179 151 101 99 135 83 29 16 9 357 333 313 306 305 299 293 299 300 289
193 193 189 187 184 185 182 179 180 187 182 181 182 216 272 341 234 199 181 192 202 215 216 215 216 187 172 137 89 63 32 15 1 351 336 311 311 305 298 294 295 303 312
194 189 190 188 187 185 185 179 177 187 192 190 186 162 196 207 227 248 249 173 207 211 227 235 224 207 205 179 161 104 47 15 352 339 329 314 304 306 294 294 291 294 297
184 186 187 186 185 186 182 183 183 188 191 201 197 196 195 191 195 209 235 234 250 178 215 226 225 214 209 215 176 138 156 340 327 319 316 310 299 293 289 286 285 286 294
188 189 183 180 181 183 182 176 180 186 190 194 196 196 204 209 183 207 238 242 247 207 236 223 229 233 221 223 217 208 199 291 308 308 307 305 300 289 284 279 281 286 296
188 179 182 180 178 176 174 176 176 180 185 189 188 181 184 189 191 203 215 217 226 232 219 232 157 235 258 266 248 222 243 257 290 306 300 297 294 285 276 275 275 278 283
178 171 176 171 167 167 166 165 165 159 165 166 164 158 175 173 182 192 201 213 228 239 233 157 221 158 223 235 205 234 262 319 296 296 300 296 292 282 272 267 272 273 276
161 162 162 159 154 153 152 158 153 153 157 170 170 165 177 177 181 190 197 203 216 234 256 218 193 208 180 212 206 256 276 293 281 284 288 290 286 279 271 259 259 264 262
156 164 168 163 161 159 159 159 163 161 168 172 181 183 188 179 186 192 200 211 218 221 240 223 220 183 233 221 238 254 269 275 283 278 280 279 276 273 267 259 253 244 244
165 167 166 165 162 162 164 167 164 167 173 175 177 179 181 180 184 187 202 214 222 221 234 247 254 228 223 230 239 248 260 258 276 271 270 267 264 261 259 252 252 240 246
165 160 162 167 164 163 163 167 167 166 172 176 176 181 180 179 190 200 211 215 221 220 227 245 254 245 255 258 254 238 261 287 268 259 264 256 255 256 255 250 245 242 232
159 166 166 160 161 160 161 159 160 160 165 172 175 183 181 191 198 197 210 222 216 218 227 237 247 248 246 247 251 273 274 283 287 226 242 242 256 261 262 248 236 228 224
155 158 150 146 143 151 155 158 160 161 164 172 184 188 195 198 207 216 216 220 219 222 230 230 245 247 245 228 242 267 262 285 284 272 281 246 246 241 242 241 230 215 236
133 141 150 147 149 150 161 165 158 161 167 183 195 204 208 205 217 222 224 229 220 221 228 231 243 246 248 249 252 248 263 259 230 98 288 263 202 247 245 235 231 237 248
129 131 134 135 140 136 164 170 168 160 174 192 198 200 205 208 215 222 229 232 230 230 235 241 247 253 260 250 245 212 229 240 269 72 312 280 198 250 242 233 246 245 244
125 133 136 136 140 149 171 176 172 172 184 197 203 205 211 212 211 214 220 225 231 233 235 229 229 237 234 216 209 219 237 251 265 254 204 263 152 259 269 259 251 258 257
129 129 136 141 150 163 179 183 177 167 184 196 202 208 210 216 215 212 218 228 232 238 242 241 236 224 231 228 206 186 222 233 265 250 193 270 210 276 262 274 291 290 278
127 137 145 159 164 165 191 193 188 167 186 194 200 213 210 217 214 220 223 216 236 235 226 240 253 254 246 234 227 210 215 225 227 271 162 223 183 266 280 157 308 313 319